KLM2WB EGNM-EGAC

Flight info

Callsign KLM2WB
Flight time N/A
Altitude 26000
Route NELSA DCT CROFT Y70 KOLID L70 GUNTU Z196 DIGMA M146 ERDUV Z198 MASOP M148 MAGEE
Aircraft A20N/M-SDE2E3FGHIRWXY/LB1

Departure

Time 2026-05-04 15:30
Airport Leeds Bradford Airport (EGNM)

Arrival

Time N/A
Airport George Best Belfast City Airport (EGAC)
Time Latitude Longitude Altitude Speed Heading
2026-05-04 15:26 53.86816 -1.65645 664 ft 0 kts 90°
2026-05-04 15:27 53.86815 -1.65572 664 ft 26 kts 91°
2026-05-04 15:27 53.86594 -1.65431 664 ft 30 kts 183°
2026-05-04 15:28 53.86211 -1.65462 679 ft 17 kts 167°
2026-05-04 15:28 53.86112 -1.65321 679 ft 22 kts 138°
2026-05-04 15:28 53.85909 -1.64935 664 ft 15 kts 109°
2026-05-04 15:29 53.85878 -1.64903 664 ft 4 kts 183°
2026-05-04 15:30 53.86319 -1.65638 676 ft 106 kts 317°
2026-05-04 15:30 53.88789 -1.69459 2679 ft 185 kts 313°
2026-05-04 15:31 53.89718 -1.73857 4183 ft 227 kts 269°
2026-05-04 15:31 53.89705 -1.76669 5081 ft 251 kts 269°
2026-05-04 15:32 53.87209 -1.84803 6897 ft 272 kts 230°
2026-05-04 15:32 53.84924 -1.89882 7154 ft 274 kts 242°
2026-05-04 15:33 53.83113 -1.95585 9255 ft 275 kts 242°
2026-05-04 15:34 53.80174 -2.04883 12068 ft 332 kts 242°
2026-05-04 15:34 53.79062 -2.08379 13147 ft 341 kts 242°
2026-05-04 15:34 53.76777 -2.15547 15335 ft 353 kts 242°
2026-05-04 15:35 53.74431 -2.22890 17376 ft 365 kts 242°
2026-05-04 15:35 53.73209 -2.26705 18307 ft 373 kts 242°
2026-05-04 15:35 53.71948 -2.30635 19190 ft 380 kts 242°
2026-05-04 15:36 53.69389 -2.38591 20795 ft 394 kts 241°
2026-05-04 15:36 53.68065 -2.42696 21606 ft 402 kts 241°
2026-05-04 15:36 53.66718 -2.46862 22415 ft 408 kts 241°
2026-05-04 15:37 53.65347 -2.51098 23203 ft 415 kts 241°
2026-05-04 15:37 53.63949 -2.55409 23948 ft 422 kts 241°
2026-05-04 15:37 53.62532 -2.59769 24626 ft 427 kts 241°
2026-05-04 15:37 53.61090 -2.64198 25246 ft 434 kts 241°
2026-05-04 15:38 53.59629 -2.68678 25778 ft 439 kts 241°
2026-05-04 15:38 53.58739 -2.71821 25952 ft 441 kts 249°
2026-05-04 15:38 53.57903 -2.76785 26058 ft 447 kts 261°
2026-05-04 15:38 53.57686 -2.82009 26063 ft 453 kts 273°
2026-05-04 15:39 53.57938 -2.87289 26058 ft 452 kts 276°
2026-05-04 15:39 53.58216 -2.92566 26064 ft 452 kts 276°
2026-05-04 15:39 53.58747 -3.03115 26064 ft 452 kts 276°
2026-05-04 15:40 53.58998 -3.08317 26064 ft 452 kts 276°
2026-05-04 15:40 53.59248 -3.13597 26062 ft 453 kts 276°
2026-05-04 15:40 53.59662 -3.18818 26065 ft 452 kts 283°
2026-05-04 15:40 53.60312 -3.23988 26064 ft 452 kts 284°
2026-05-04 15:41 53.60958 -3.29168 26063 ft 452 kts 283°
2026-05-04 15:41 53.61598 -3.34345 26064 ft 452 kts 283°
2026-05-04 15:41 53.62234 -3.39523 26063 ft 452 kts 283°
2026-05-04 15:41 53.62868 -3.44706 26063 ft 452 kts 283°
2026-05-04 15:42 53.63500 -3.49884 26064 ft 452 kts 283°
2026-05-04 15:42 53.64131 -3.55076 26061 ft 452 kts 284°
2026-05-04 15:42 53.64993 -3.60146 26061 ft 449 kts 292°
2026-05-04 15:42 53.66268 -3.64905 26059 ft 447 kts 301°
2026-05-04 15:43 53.67926 -3.69319 26060 ft 445 kts 308°
2026-05-04 15:43 53.69709 -3.73550 26060 ft 438 kts 308°
2026-05-04 15:43 53.71464 -3.77752 26059 ft 439 kts 307°
2026-05-04 15:43 53.73223 -3.81976 26059 ft 440 kts 307°
2026-05-04 15:44 53.74980 -3.86207 26062 ft 440 kts 307°
2026-05-04 15:44 53.76734 -3.90437 26062 ft 440 kts 307°
2026-05-04 15:44 53.78488 -3.94673 26062 ft 440 kts 307°
2026-05-04 15:44 53.80239 -3.98907 26060 ft 440 kts 307°
2026-05-04 15:45 53.81989 -4.03148 26064 ft 440 kts 307°
2026-05-04 15:45 53.83741 -4.07400 26060 ft 440 kts 307°
2026-05-04 15:45 53.85496 -4.11603 26060 ft 439 kts 310°
2026-05-04 15:45 53.87579 -4.15310 26063 ft 435 kts 322°
2026-05-04 15:46 53.90046 -4.18222 26060 ft 431 kts 333°
2026-05-04 15:46 53.92776 -4.20281 26052 ft 428 kts 340°
2026-05-04 15:46 53.95541 -4.22094 26066 ft 425 kts 340°
2026-05-04 15:46 53.98304 -4.23918 26067 ft 426 kts 340°
2026-05-04 15:47 54.01067 -4.25748 26070 ft 426 kts 340°
2026-05-04 15:47 54.03830 -4.27581 26066 ft 426 kts 340°
2026-05-04 15:47 54.06592 -4.29416 26069 ft 426 kts 340°
2026-05-04 15:47 54.09353 -4.31253 26072 ft 426 kts 340°
2026-05-04 15:48 54.12105 -4.33130 26068 ft 427 kts 337°
2026-05-04 15:48 54.14675 -4.35674 26062 ft 429 kts 326°
2026-05-04 15:48 54.18755 -4.43092 26058 ft 432 kts 306°
2026-05-04 15:49 54.20477 -4.47298 26066 ft 432 kts 307°
2026-05-04 15:49 54.22203 -4.51497 26066 ft 431 kts 307°
2026-05-04 15:49 54.23925 -4.55692 26066 ft 431 kts 307°
2026-05-04 15:49 54.25644 -4.59893 26064 ft 432 kts 307°
2026-05-04 15:50 54.27363 -4.64105 26062 ft 431 kts 307°
2026-05-04 15:50 54.29077 -4.68318 26062 ft 431 kts 306°
2026-05-04 15:50 54.30773 -4.72494 26064 ft 432 kts 306°
2026-05-04 15:50 54.32486 -4.76720 26070 ft 432 kts 306°
2026-05-04 15:51 54.34198 -4.80948 26059 ft 431 kts 306°
2026-05-04 15:51 54.35907 -4.85177 26067 ft 432 kts 306°
2026-05-04 15:51 54.37616 -4.89414 26062 ft 432 kts 306°
2026-05-04 15:51 54.39323 -4.93651 26073 ft 432 kts 306°
2026-05-04 15:52 54.41024 -4.97879 26070 ft 428 kts 306°
2026-05-04 15:52 54.42709 -5.02079 26073 ft 428 kts 306°
2026-05-04 15:52 54.44392 -5.06278 26069 ft 429 kts 306°
2026-05-04 15:52 54.46091 -5.10490 26067 ft 428 kts 306°
2026-05-04 15:53 54.47795 -5.14690 26071 ft 429 kts 306°
2026-05-04 15:53 54.49516 -5.18815 26076 ft 427 kts 309°
2026-05-04 15:53 54.51480 -5.22606 26072 ft 426 kts 316°
2026-05-04 15:53 54.53700 -5.25979 26076 ft 426 kts 322°
2026-05-04 15:54 54.54491 -5.27038 26078 ft 427 kts 323°